Location: Tel Aviv
(32.0670°N, 34.7670°E)
Time: 08:47:55
(UTC+02:00)

Transit 2A Rocket - Pass Details

Date: 12 December 2023
Orbit: 590 x 905 km, 66.7° (Epoch: 01 March)

Event Time Altitude Azimuth Distance (km) Brightness Sun altitude
Rises 18:34:22 0° 208° (SSW) 3,108 8.7 -24.2°
Reaches altitude 10° 18:36:48 10° 210° (SSW) 2,141 7.8 -24.7°
Maximum altitude 18:41:36 75° 295° (WNW) 678 4.7 -25.6°
Enters shadow 18:41:45 74° 315° (NW) 679 4.7 -25.7°
